Home   Weather   Thônex   Past weeks

Flag for Switzerland Past Weather in Thônex, Geneva, Switzerland — Yesterday and Last 2 Weeks

Now
59 °F

Clear.


Feels Like: 59 °F
Forecast: 58 / 82 °F
Wind: 1 mph from North

Location: Geneva Cointrin Airport

Current Time: Sep 1, 2016 at 5:56:17 AM

Latest Report: Sep 1, 2016 at 5:20 AM


Visibility: 10 mi

Pressure: 30.21 "Hg

Humidity: 94%

Dew Point: 57 °F

Location of ThônexLocation

Past Weather in Thônex — Graph

°F

Thônex Temperature Yesterday

Maximum temperature yesterday: 82 °F (at 2:50 PM)
Minimum temperature yesterday: 59 °F (at 5:20 AM)
Average temperature yesterday: 69 °F

High & Low Weather Summary for the Past Weeks

 TemperatureHumidityPressure
High91 °F (Aug 25, 3:20 PM)100% (Aug 19, 2:50 AM)30.39 "Hg (Aug 19, 2:50 AM)
Low48 °F (Aug 22, 4:20 AM)26% (Aug 28, 3:20 PM)29.86 "Hg (Aug 17, 4:50 PM)
Average70 °F67%30.11 "Hg
* Reported Aug 17 4:20 AM — Sep 1 4:50 AM, Thônex, Weather by CustomWeather, © 2016

Note: Actual official high and low records may vary slightly from our data, if they occured in-between our weather recording intervals... More about our weather records

Advertising

Thônex Weather History for the Previous 24 Hours

Scroll right to see more
 ConditionsComfort  
Time TempWeatherWind HumidityBarometerVisibility
4:50 AM
Thu, Sep 1
59 °FClear.1 mph94%30.21 "Hg10 mi
4:20 AM59 °FClear.1 mph94%30.21 "Hg10 mi
3:50 AM59 °FClear.2 mph94%30.21 "Hg10 mi
3:20 AM61 °FClear.2 mph94%30.21 "Hg10 mi
2:50 AM61 °FClear.3 mph94%30.21 "Hg10 mi
2:20 AM61 °FClear.2 mph94%30.21 "Hg10 mi
1:50 AM63 °FClear.2 mph94%30.21 "Hg10 mi
1:20 AM64 °FClear.5 mph88%30.21 "Hg10 mi
12:50 AM64 °FClear.6 mph88%30.21 "Hg10 mi
12:20 AM64 °FClear.6 mph88%30.21 "Hg10 mi
11:50 PM
Wed, Aug 31
64 °FClear.3 mph88%30.21 "Hg10 mi
11:20 PM64 °FClear.5 mph88%30.21 "Hg10 mi
10:50 PM66 °FClear.6 mph83%30.21 "Hg10 mi
10:20 PM70 °FPassing clouds.3 mph69%30.18 "HgN/A
9:50 PM70 °FPassing clouds.6 mph73%30.18 "HgN/A
9:20 PM70 °FPassing clouds.6 mph73%30.18 "HgN/A
8:50 PM72 °FScattered clouds.3 mph69%30.15 "HgN/A
8:20 PM72 °FScattered clouds.3 mph69%30.15 "HgN/A
7:50 PM72 °FScattered clouds.7 mph73%30.12 "HgN/A
7:20 PM73 °FBroken clouds.5 mph74%30.12 "HgN/A
6:50 PM72 °FPartly sunny.6 mph78%30.12 "HgN/A
6:20 PM72 °FBroken clouds.3 mph83%30.12 "HgN/A
5:50 PM70 °FBroken clouds.13 mph78%30.12 "HgN/A
5:20 PM72 °FRain showers. Broken clouds.12 mph78%30.12 "HgN/A
4:50 PM79 °FSprinkles. Scattered clouds.5 mph54%30.12 "HgN/A
4:20 PM81 °FScattered clouds.5 mph45%30.12 "HgN/A
3:50 PM82 °FScattered clouds.6 mph42%30.12 "HgN/A
3:20 PM82 °FScattered clouds.7 mph42%30.12 "HgN/A
2:50 PM82 °FPassing clouds.3 mph45%30.12 "HgN/A
2:20 PM81 °FPassing clouds.7 mph48%30.15 "HgN/A
1:50 PM81 °FPassing clouds.3 mph48%30.15 "HgN/A
1:20 PM79 °FPassing clouds.6 mph51%30.15 "HgN/A
12:50 PM77 °FPassing clouds.3 mph54%30.15 "HgN/A
12:20 PM77 °FPassing clouds.3 mph54%30.18 "HgN/A
11:50 AM77 °FPassing clouds.2 mph54%30.18 "HgN/A
11:20 AM73 °FPassing clouds.2 mph61%30.18 "HgN/A
10:50 AM72 °FPassing clouds.5 mph65%30.18 "HgN/A
10:20 AM72 °FPassing clouds.2 mph69%30.18 "HgN/A
9:50 AM70 °FPassing clouds.1 mph69%30.18 "HgN/A
9:20 AM68 °FPassing clouds.1 mph73%30.15 "HgN/A
8:50 AM64 °FPassing clouds.2 mph83%30.15 "HgN/A
8:20 AM63 °FScattered clouds.2 mph83%30.15 "HgN/A
7:50 AM63 °FPassing clouds.2 mph83%30.15 "HgN/A
7:20 AM59 °FPassing clouds.1 mph94%30.15 "HgN/A
6:50 AM61 °FClear.2 mph88%30.15 "Hg10 mi
6:20 AM59 °FClear.2 mph94%30.15 "Hg10 mi
5:50 AM61 °FClear.1 mph88%30.15 "Hg10 mi
5:20 AM59 °FClear.1 mph94%30.15 "Hg10 mi
Weather by CustomWeather, © 2016

See weather overviewHow to use our weather pages